Terminal Aerodrome Forecast
Issued by NWS

Home | Current Version | Previous Version | Text Only | Print | Product List | Glossary On
Versions: 1 2 3 4 5 6 7 8 9 10 11 12
000
FTUS46 KHNX 161700
TAFFAT
TAF
KFAT 161732Z 1618/1718 VRB03KT P6SM SKC
     FM162200 31010KT P6SM SKC
      TEMPO 1623/1703 32013G21KT
     FM170500 32004KT P6SM SKC=

USA.gov is the U.S. government's official web portal to all federal, state and local government web resources and services.